Location: Kernascl�den
(48.0062°N, 3.3198°W)
Time: 22:24:56
(UTC+00:00)

COSMOS 2455 - Pass Details

Date: 21 January 2021
Orbit: 901 x 908 km, 67.1° (Epoch: 04 March)

Event Time Altitude Azimuth Distance (km) Brightness Sun altitude
Rises 19:30:01 0° 240° (WSW) 3,525 6.9 -25.3°
Reaches altitude 10° 19:32:42 10° 248° (WSW) 2,588 6.1 -25.8°
Maximum altitude 19:38:17 39° 316° (NW) 1,345 4.0 -26.7°
Enters shadow 19:41:32 22° 10° (N) 1,868 4.4 -27.2°
